KGRB

Green Bay - Austin Straubel International Airport

Airport
ICAO code
KGRB
IATA Code
GRB
Summary
ICAO Region
NAM
ICAO Territory
Location

Ashwaubenon , Wisconsin

Serving
Green Bay
Elevation
695 ft
Coordinates
44° 29' 31" N , 88° 7' 39" W
KCC
Airport CFIT
Altimeter Temperature Error Correction
Metar
KGRB 150953Z AUTO 00000KT 5SM BR CLR 22/21 A2981 RMK AO2 SLP089 T02220206

Description

Austin Straubel International Airport is a public use airport located in Brown County, Wisconsin, 7 nm southwest of the central business district of Green Bay.

Airport map

Aerial View

SKYbrary Partners:

Safety knowledge contributed by: